Regional Weather Roundup
Issued by NWS Mt. Holly, NJ

Current Version | Previous Version | Text Only | Print | Product List | Glossary Off
Versions: 1 2 3 4 5 6 7 8 9 10 11 12 13 14 15 16 17 18 19 20 21 22 23 24 25 26 27 28 29 30 31 32 33 34 35 36 37 38 39 40 41 42 43 44 45 46 47 48 49 50

000
ASUS41 KPHI 192210
RWRPHI

REGIONAL WEATHER ROUNDUP
NATIONAL WEATHER SERVICE MOUNT HOLLY NJ
500 PM EST FRI DEC 19 2014

NOTE:  "FAIR" INDICATES FEW OR NO CLOUDS BELOW 12,000 FEET WITH NO
SIGNIFICANT WEATHER AND/OR OBSTRUCTIONS TO VISIBILITY.

 * = STATION DOES NOT REPORT PRECIPITATION (E.G. RAIN, SNOW, ETC.)
        OR FOG.

NJZ015>026-192300-
SOUTHERN NEW JERSEY

CITY           SKY/WX    TMP DP  RH WIND       PRES   REMARKS
POMONA         CLEAR     36  23  59 W7        30.10R WCI  30
RIO GRANDE*    CLEAR     37  25  60 NW6       30.10R WCI  33
MILLVILLE      CLEAR     37  23  56 NW7       30.11R WCI  32
WRIGHTSTOWN    CLEAR     35  21  56 NW13      30.08R WCI  27
MOUNT HOLLY    CLEAR     36  22  56 N7        30.11R WCI  30
TRENTON        CLEAR     34  21  59 N10       30.10R WCI  26

$$
NJZ001>014-192300-
NORTHERN NEW JERSEY

CITY           SKY/WX    TMP DP  RH WIND       PRES   REMARKS
SUSSEX         CLOUDY    30  20  66 VRB3      30.10R
ANDOVER*         N/A     29  20  69 VRB6G17   30.11R WCI  23
NEWARK         MOCLDY    33  21  61 NW14G24   30.11R WCI  23
TETERBORO      MOCLDY    34  20  56 NW8       30.09R WCI  27
CALDWELL       CLOUDY    32  20  61 NW8       30.11R WCI  25
SOMERVILLE     CLOUDY    34  21  59 NW13G23   30.10R WCI  25
ALLAIRE*       CLEAR     36  18  48 NW9       30.08R WCI  29
TOMS RIVER*    CLEAR     36  21  55 NW5       30.10R WCI  32

$$
PAZ043-044-047-054-055-060>062-066>071-192300-
EASTERN PENNSYLVANIA

CITY           SKY/WX    TMP DP  RH WIND       PRES   REMARKS
PHILADELPHIA   PTCLDY    40  21  46 NW10G21   30.12R WCI  33
NORTH PHILA    CLEAR     38  20  48 N13       30.12R WCI  30
BLUE BELL      CLEAR     37  23  56 NW5       30.10R WCI  34
DOYLESTOWN     CLEAR     32  22  66 N8        30.11R WCI  25
QUAKERTOWN*    CLEAR     32  23  69 N6        30.12R WCI  26
POTTSTOWN      CLEAR     35  20  54 NW8       30.12R WCI  29
LANCASTER      CLEAR     34  21  59 NW8       30.13R WCI  27
COATESVILLE    CLEAR     36  25  64 NW9       30.11R WCI  29
READING        CLEAR     34  20  56 NW10      30.12R WCI  26
ALLENTOWN      PTCLDY    34  21  59 N10       30.13R WCI  26
MOUNT POCONO   CLOUDY    25  18  74 NW18G26   30.03R WCI  11
HAZLETON       CLOUDY    28  21  74 NW13      30.10R WCI  18
WILKES BARRE   CLOUDY    30  19  63 NW9       30.12R WCI  22

$$
DEZALL-MDZ008-012-015-019-020-192300-
DELAWARE AND EASTERN MARYLAND

CITY           SKY/WX    TMP DP  RH WIND       PRES   REMARKS
WILMINGTON     CLEAR     38  22  52 NW13      30.13R WCI  30
DOVER          CLEAR     37  24  58 W8        30.11R WCI  31
GEORGETOWN     CLEAR     38  24  57 VRB5      30.15R WCI  34
EASTON         PTCLDY    37  27  65 NW6       30.19R WCI  33
PATUXENT       MOCLDY    38  23  55 NW12      30.17R WCI  30
OCEAN CITY     CLOUDY    37  25  61 NW7       30.15R WCI  32
WALLOPS ISLAND CLOUDY    37  25  61 NW9       30.16R WCI  30
CAMBRIDGE      MOCLDY    37  25  60 NW6       30.15S WCI  33
SALISBURY      CLOUDY    40  24  53 NW12      30.17R WCI  33

$$
PAZ001-021-NYZ056-072-MDZ011-DCZ001-192300-
OTHER NEARBY LOCATIONS

CITY           SKY/WX    TMP DP  RH WIND       PRES   REMARKS
HARRISBURG     PTCLDY    35  20  54 NW14      30.15R WCI  26
STATE COLLEGE  MOCLDY    32  19  59 NW10      30.15R WCI  24
WILLIAMSPORT   CLOUDY    34  20  56 NW7       30.15R WCI  28
BINGHAMTON     CLOUDY    23  20  88 NW10      30.09R WCI  12
NEW YORK CITY  PTCLDY    33  19  56 VRB7      30.11R WCI  27
BALTIMORE      PTCLDY    37  23  56 W9        30.15R WCI  30
WASHINGTON DC  PTCLDY    41  22  46 NW12      30.19R

$$



USA.gov is the U.S. government's official web portal to all federal, state and local government web resources and services.